sat.trackr.live / text

‹ back to catalog

STARLINK-36843

NORAD 67856 · 2026-034G

PAYLOAD ACTIVE UNKNOWN

§ Identity

Operator
Country
US
Launch date
2026-02-20
Launch site
AFETR
Launch vehicle
Mass (kg)
RCS (m²)

Purposes: comms

External: N2YO · Heavens-Above · Gunter

§ Orbital elements

Epoch: 2026-09-19T22:24:41.349024Z

Period
94.01 min
Inclination
53.1606°
Eccentricity
0.0001142
Mean motion
15.31723270 rev/d
Perigee alt
469.9 km
Apogee alt
471.5 km
Semi-major
6,848.8 km
B*
2.8062e-4
RAAN
20.7153°
Arg perigee
79.5902°
Mean anomaly
280.5228°
Rev number
3,379

§ Raw data

STARLINK-368431 67856U 26034G   26262.93381191  .00008359  00000+0  28062-3 0  99952 67856  53.1606  20.7153 0001142  79.5902 280.5228 15.31723270 33793

JSON: /api/v1/satellites/67856 · /tle

For live sub-satellite position, see the globe view (requires WebGL).

§ Visibility from observer

Set your observer location to see the next 7 days of passes ≥ 10°. The values pass through the URL so the page stays shareable.

No JS? Fill the form by hand. The geolocation button needs JavaScript.